FW9424 Weather Reports


Display with metric or nautical units.
time (UTC)temp
F
wind
direction
speed
MPH
gust
MPH
rain 1hr
in
rain 24hr
in
rain mn
in
humidity
%
barometer
mb
20260507145517 72 292 2.0 5.0 0.00 0.00 0.00 55 1017.6
20260507144517 72 300 2.0 4.0 0.00 0.00 0.00 58 1017.6
20260507143518 71 294 2.0 7.0 0.00 0.00 0.00 59 1017.7
20260507142538 71 277 5.0 10.0 0.00 0.00 0.00 62 1017.8
20260507141518 71 270 5.0 10.0 0.00 0.00 0.00 61 1017.7
20260507140518 71 268 5.0 9.0 0.00 0.00 0.00 62 1017.6
20260507135538 70 289 5.0 10.0 0.00 0.00 0.00 66 1017.7
20260507134518 71 285 6.0 10.0 0.00 0.00 0.00 65 1017.8
20260507133518 73 286 5.0 9.0 0.00 0.00 0.00 56 1017.7
20260507132518 72 286 3.0 8.0 0.00 0.00 0.00 54 1017.8
20260507131518 72 307 3.0 6.0 0.00 0.00 0.00 56 1017.9
20260507130518 72 288 4.0 9.0 0.00 0.00 0.00 52 1017.8
20260507125518 73 265 5.0 8.0 0.00 0.00 0.00 54 1017.9
20260507124519 72 320 3.0 6.0 0.00 0.00 0.00 56 1017.9
20260507123518 73 299 4.0 7.0 0.00 0.00 0.00 59 1018.0
20260507122518 75 274 3.0 8.0 0.00 0.00 0.00 59 1017.9
20260507121518 73 261 2.0 5.0 0.00 0.00 0.00 63 1018.0
20260507120518 73 297 4.0 8.0 0.00 0.00 0.00 63 1018.0
20260507115518 72 302 3.0 7.0 0.00 0.00 0.00 64 1018.0
20260507114518 72 289 5.0 10.0 0.00 0.00 0.00 65 1018.1
20260507113518 74 287 5.0 11.0 0.00 0.00 0.00 55 1018.0
20260507112518 76 289 5.0 9.0 0.00 0.00 0.00 49 1017.9
20260507111518 79 208 5.0 11.0 0.00 0.00 0.00 35 1017.9
20260507110518 79 187 4.0 9.0 0.00 0.00 0.00 36 1017.9
20260507105518 79 178 6.0 10.0 0.00 0.00 0.00 35 1018.0
20260507104518 78 168 5.0 12.0 0.00 0.00 0.00 34 1018.0
20260507103538 78 187 3.0 9.0 0.00 0.00 0.00 37 1018.0
20260507102538 77 193 4.0 12.0 0.00 0.00 0.00 39 1018.0
20260507101519 77 194 4.0 9.0 0.00 0.00 0.00 44 1018.1
20260507100518 77 175 5.0 11.0 0.00 0.00 0.00 42 1018.1
20260507095518 76 159 4.0 11.0 0.00 0.00 0.00 41 1018.1
20260507094518 76 157 5.0 11.0 0.00 0.00 0.00 43 1018.1
20260507093518 76 158 5.0 11.0 0.00 0.00 0.00 43 1018.1
20260507092518 75 172 5.0 11.0 0.00 0.00 0.00 43 1018.1
20260507091519 76 184 5.0 10.0 0.00 0.00 0.00 44 1018.3
20260507090518 75 153 3.0 8.0 0.00 0.00 0.00 45 1018.3
20260507085518 75 150 2.0 7.0 0.00 0.00 0.00 44 1018.3
20260507084518 75 155 2.0 8.0 0.00 0.00 0.00 43 1018.3
20260507083539 74 136 4.0 9.0 0.00 0.00 0.00 44 1018.4
20260507082518 74 159 3.0 10.0 0.00 0.00 0.00 45 1018.4
20260507081518 73 163 4.0 9.0 0.00 0.00 0.00 45 1018.5
20260507080518 73 149 4.0 10.0 0.00 0.00 0.00 46 1018.4
20260507075518 73 145 4.0 10.0 0.00 0.00 0.00 48 1018.3
20260507074518 72 134 3.0 9.0 0.00 0.00 0.00 49 1018.4
20260507073538 72 152 4.0 9.0 0.00 0.00 0.00 48 1018.3
20260507072518 72 132 4.0 10.0 0.00 0.00 0.00 48 1018.4
20260507071538 72 131 3.0 8.0 0.00 0.00 0.00 48 1018.4
20260507070519 72 121 2.0 9.0 0.00 0.00 0.00 50 1018.3
20260507065538 71 104 4.0 12.0 0.00 0.00 0.00 51 1018.3
20260507064518 71 102 5.0 11.0 0.00 0.00 0.00 54 1018.3
20260507063518 70 108 3.0 7.0 0.00 0.00 0.00 57 1018.4
20260507062518 70 108 4.0 8.0 0.00 0.00 0.00 59 1018.3
20260507061540 70 125 3.0 7.0 0.00 0.00 0.00 58 1018.5
20260507060518 70 138 2.0 7.0 0.00 0.00 0.00 59 1018.4
20260507055519 69 104 1.0 9.0 0.00 0.00 0.00 61 1018.3
20260507054518 68 79 2.0 9.0 0.00 0.00 0.00 61 1018.3
20260507053518 68 98 2.0 7.0 0.00 0.00 0.00 61 1018.3
20260507052538 67 68 2.0 7.0 0.00 0.00 0.00 63 1018.3
20260507051518 67 100 3.0 11.0 0.00 0.00 0.00 62 1018.2
20260507050518 67 85 1.0 7.0 0.00 0.00 0.00 63 1018.0
20260507045518 66 81 1.0 6.0 0.00 0.00 0.00 65 1018.2
20260507044519 65 73 0.0 5.0 0.00 0.00 0.00 66 1018.0
20260507043518 64 44 1.0 5.0 0.00 0.00 0.00 67 1017.8
20260507042518 62 76 0.0 4.0 0.00 0.00 0.00 68 1017.6
20260507041540 62 50 2.0 5.0 0.00 0.00 0.00 66 1017.6
20260507040518 62 100 1.0 6.0 0.00 0.00 0.00 65 1017.3
20260507035518 61 80 0.0 3.0 0.00 0.00 0.00 65 1017.1
20260507034539 61 70 0.0 5.0 0.00 0.00 0.00 66 1017.1
20260507033558 60 100 1.0 4.0 0.00 0.00 0.00 67 1016.9
20260507032519 60 73 1.0 4.0 0.00 0.00 0.00 68 1016.8
20260507031518 60 85 1.0 4.0 0.00 0.00 0.00 69 1016.8
20260507030518 61 106 1.0 5.0 0.00 0.00 0.00 67 1016.6
20260507025518 61 104 3.0 8.0 0.00 0.00 0.00 67 1016.3
20260507024538 61 106 3.0 7.0 0.00 0.00 0.00 66 1016.2
20260507023518 59 128 0.0 1.0 0.00 0.00 0.00 66 1016.4
20260507022518 60 0.0 1.0 0.00 0.00 0.00 64 1016.6
20260507021518 60 28 0.0 2.0 0.00 0.00 0.00 64 1016.6
20260507020539 60 76 1.0 4.0 0.00 0.00 0.00 63 1016.5
20260507015538 60 0.0 2.0 0.00 0.00 0.00 64 1016.5
20260507014538 60 21 0.0 2.0 0.00 0.00 0.00 63 1016.5
20260507013517 59 37 0.0 1.0 0.00 0.00 0.00 65 1016.6
20260507012518 60 15 0.0 2.0 0.00 0.00 0.00 64 1016.5
20260507011518 60 19 1.0 3.0 0.00 0.00 0.00 64 1016.5
20260507010518 59 26 1.0 3.0 0.00 0.00 0.00 64 1016.4
20260507005539 59 0.0 0.0 0.00 0.00 0.00 67 1016.4
20260507004538 59 20 0.0 1.0 0.00 0.00 0.00 67 1016.3
20260507003518 59 0.0 1.0 0.00 0.00 0.00 67 1016.3
20260507002518 59 0.0 0.0 0.00 0.00 0.00 67 1016.2
20260507001519 58 0.0 0.0 0.00 0.00 0.00 72 1016.2
20260507000518 58 0.0 0.0 0.00 0.00 0.00 68 1016.3
20260506235519 59 0.0 0.0 0.00 0.00 0.00 69 1016.5
20260506234518 59 0.0 0.0 0.00 0.00 0.00 68 1016.5
20260506233519 59 0.0 0.0 0.00 0.00 0.00 72 1016.6
20260506232518 59 19 0.0 1.0 0.00 0.00 0.00 73 1016.6
20260506231519 59 0.0 0.0 0.00 0.00 0.00 75 1016.7
20260506230518 59 0.0 1.0 0.00 0.00 0.00 75 1016.7
20260506225519 59 0.0 0.0 0.00 0.00 0.00 76 1016.7
20260506224538 59 0.0 0.0 0.00 0.00 0.00 77 1016.7
20260506223538 59 0.0 0.0 0.00 0.00 0.00 77 1016.8
20260506222518 59 0.0 0.0 0.00 0.00 0.00 77 1016.8
20260506221519 59 0.0 0.0 0.00 0.00 0.00 78 1016.8
20260506220519 59 22 0.0 2.0 0.00 0.00 0.00 77 1016.9
20260506215518 59 0.0 0.0 0.00 0.00 0.00 77 1016.9
20260506214519 59 13 0.0 2.0 0.00 0.00 0.00 76 1016.8
20260506213518 59 0.0 0.0 0.00 0.00 0.00 75 1016.8
20260506212518 59 0.0 1.0 0.00 0.00 0.00 73 1016.8
20260506211518 60 339 1.0 2.0 0.00 0.00 0.00 72 1016.8
20260506210558 60 0.0 0.0 0.00 0.00 0.00 72 1016.8
20260506205518 60 0.0 0.0 0.00 0.00 0.00 72 1016.8
20260506204540 60 0.0 0.0 0.00 0.00 0.00 71 1016.8
20260506203600 60 0.0 0.0 0.00 0.00 0.00 71 1016.7
20260506202519 60 0.0 0.0 0.00 0.00 0.00 72 1016.7
20260506201518 60 0.0 1.0 0.00 0.00 0.00 71 1016.8
20260506200520 60 71 0.0 2.0 0.00 0.00 0.00 72 1016.8
20260506195518 61 336 1.0 3.0 0.00 0.00 0.00 70 1016.7
20260506194538 61 0.0 0.0 0.00 0.00 0.00 70 1016.6
20260506193516 62 0.0 0.0 0.00 0.00 0.00 69 1016.5
20260506192516 63 0.0 0.0 0.00 0.00 0.00 68 1016.4
20260506191516 62 64 0.0 3.0 0.00 0.00 0.00 68 1016.3
20260506190516 62 83 0.0 1.0 0.00 0.00 0.00 68 1016.2
20260506185537 63 15 0.0 1.0 0.00 0.00 0.00 66 1016.1
20260506184516 64 245 0.0 3.0 0.00 0.00 0.00 66 1016.0
20260506183516 64 318 2.0 4.0 0.00 0.00 0.00 62 1015.9
20260506182516 64 20 1.0 3.0 0.00 0.00 0.00 60 1015.7
20260506181516 65 294 2.0 4.0 0.00 0.00 0.00 60 1015.5
20260506180516 65 311 0.0 3.0 0.00 0.00 0.00 52 1015.4
20260506175516 65 0.0 0.0 0.00 0.00 0.00 51 1015.3
20260506174556 65 0.0 0.0 0.00 0.00 0.00 55 1015.3
20260506173517 66 0.0 0.0 0.00 0.00 0.00 56 1015.3
20260506172516 66 109 0.0 1.0 0.00 0.00 0.00 56 1015.2
20260506171557 67 47 0.0 1.0 0.00 0.00 0.00 53 1015.1
20260506170516 68 85 0.0 1.0 0.00 0.00 0.00 52 1015.1
20260506165517 69 334 1.0 6.0 0.00 0.00 0.00 52 1015.0
20260506164516 68 344 6.0 14.0 0.00 0.00 0.00 55 1015.0
20260506163536 69 350 9.0 12.0 0.00 0.00 0.00 55 1015.0
20260506162516 69 340 7.0 11.0 0.00 0.00 0.00 56 1015.0
20260506161516 70 304 1.0 5.0 0.00 0.00 0.00 54 1015.0
20260506160517 71 282 1.0 4.0 0.00 0.00 0.00 53 1015.0
20260506155516 70 269 2.0 6.0 0.00 0.00 0.00 55 1015.1
20260506154516 70 262 4.0 10.0 0.00 0.00 0.00 55 1015.1
20260506153516 71 255 2.0 8.0 0.00 0.00 0.00 54 1015.1
20260506152516 71 254 3.0 9.0 0.00 0.00 0.00 55 1015.1
20260506151516 71 258 2.0 9.0 0.00 0.00 0.00 55 1015.2
20260506150516 72 276 3.0 9.0 0.00 0.00 0.00 52 1015.2